Погода в Малакееве

Россия / Белгородская область     50°19′00″N   38°39′48″E
темп.,
°C
ветер,
м/с
пор.,
м/с
влажн.,
%
обл.,
%
осадки,
мм/ч
давл.,
гПа
погр.,
м
12 апреля, пн
пн1200:00+9св61085100 0.0 1024434
03:00+7св5119697 0.0 1024289
06:00+7св5129789 0.0 1024263
09:00+13всв6107345 0.0 1023426
12:00+20вюв710385 0.0 10221025
15:00+22вюв810305 0.0 10211560
18:00+20вюв61240100 0.0 1022443
21:00+15вюв5135788 0.0 1023256
13 апреля, вт
вт1300:00+13в5136544 0.0 1023297
03:00+11в4107183 0.0 1023194
06:00+10вюв41173100 0.0 1024232
09:00+15вюв6115282 0.0 1024583
12:00+19юв710335 0.0 10221215
15:00+20юв8113477 0.0 10221945
18:00+19ююв5943100 0.0 1021433
21:00+13ююз236890 0.0 102245
14 апреля, ср
ср1400:00+11всв127630 0.0 102111
03:00+10в3761100 0.0 1021122
06:00+9вюв386465 0.0 1020146
09:00+14юв694861 0.0 1020549
12:00+18юв673556 0.0 10191283
15:00+19ююв5630100 0.0 10181849
18:00+18ю223692 0.0 101721
21:00+14св2240100 0.0 101712
15 апреля, чт
чт1500:00+12вюв3454100 0.0 101645
03:00+11в3357100 0.0 101646
06:00+11в3760100 0.0 1015136
09:00+16вюв574662 0.0 1015424
12:00+19юв5634100 0.0 10141300
15:00+19ююв5537100 0.0 10131786
18:00+17ю5847100 0.0 1013588
21:00+13ю2469100 0.1 1013144
16 апреля, пт
пт1600:00+12юв357399 0.3 1012168
03:00+11юз3680100 0.4 1012193
06:00+10ююз2383100 0.1 101374
09:00+13ююз3367100 0.1 1013441
12:00+16ю355471 0.1 10131467
15:00+15ю5653100 1.0 10131676
18:00+13ююв3563100 0.1 1013261
21:00+10ююз367817 0.1 1014147